Date,TemperatureHighF,TemperatureAvgF,TemperatureLowF,DewpointHighF,DewpointAvgF,DewpointLowF,HumidityHigh,HumidityAvg,HumidityLow,PressureMaxIn,PressureMinIn,WindSpeedMaxMPH,WindSpeedAvgMPH,GustSpeedMaxMPH,PrecipitationSumIn
2013-1-1,58.1,54.8,51.8,49.2,47.7,44.8,81,77,72,30.14,29.96,18,4,18,0.00
2013-1-2,54.3,47.6,40.1,48.6,42.6,35.4,84,83,81,30.21,29.91,18,4,18,0.22
2013-1-3,41.2,39.7,35.0,36.3,34.8,30.1,83,82,82,30.27,30.14,13,3,13,0.05
2013-1-4,52.5,39.8,29.8,44.1,33.4,25.3,83,78,69,30.33,30.21,9,3,13,0.00
2013-1-5,51.4,40.5,30.1,40.0,31.7,23.1,76,71,63,30.40,30.27,12,2,12,0.00
2013-1-6,49.1,46.1,42.0,41.7,38.6,34.0,79,75,72,30.29,30.09,12,1,12,0.01
2013-1-7,54.1,45.0,37.3,43.8,37.2,31.7,80,74,65,30.46,30.14,21,5,21,0.00
2013-1-8,60.9,49.9,40.1,51.5,42.1,32.5,79,75,71,30.46,30.36,16,4,16,0.00
2013-1-9,69.0,56.2,45.2,60.8,49.7,39.4,82,79,74,30.43,30.36,8,2,8,0.00
2013-1-10,63.8,54.5,48.0,54.2,46.7,38.3,83,75,65,30.52,30.40,18,3,18,0.00
2013-1-11,65.0,56.6,48.4,58.7,49.7,39.1,83,78,70,30.44,30.17,18,4,18,0.21
2013-1-12,64.1,57.5,52.6,59.4,52.9,47.9,86,84,83,30.20,30.12,9,2,9,0.00
2013-1-13,64.8,58.7,53.4,60.2,54.3,49.3,86,85,85,30.20,30.12,12,2,12,0.01
2013-1-14,68.2,60.3,55.9,63.5,55.9,51.6,86,85,84,30.22,30.12,14,3,14,0.01
2013-1-15,61.1,57.6,54.4,56.9,53.4,50.3,86,86,85,30.21,30.09,15,3,15,0.02
2013-1-16,64.1,59.0,54.5,59.7,54.8,50.4,87,86,85,30.09,29.99,15,3,15,0.01
2013-1-17,66.4,55.7,41.5,62.1,51.5,37.6,87,86,85,30.01,29.80,26,5,26,0.28
2013-1-18,47.2,41.1,36.5,41.7,36.2,31.8,86,83,78,30.55,29.95,28,6,28,0.01
2013-1-19,59.9,44.8,33.9,50.9,38.0,28.4,81,77,71,30.52,30.20,11,2,11,0.00
2013-1-20,59.9,50.0,41.3,52.6,43.8,35.5,82,79,75,30.21,30.01,15,4,15,0.00
2013-1-21,60.4,49.4,37.7,51.7,42.5,32.1,81,77,72,30.09,29.90,17,4,17,0.00
2013-1-22,49.8,40.4,29.2,41.8,26.8,14.6,75,59,47,30.29,29.95,19,5,19,0.00
2013-1-23,44.1,34.3,25.1,30.2,17.8,11.6,58,51,41,30.40,30.14,17,4,17,0.00
2013-1-24,49.8,37.8,25.4,38.1,23.8,9.6,67,57,47,30.53,30.00,29,9,29,0.00
2013-1-25,38.7,30.5,22.6,27.6,18.8,9.0,74,62,51,30.53,30.11,19,4,19,0.18
2013-1-26,43.9,34.1,29.0,36.3,27.2,22.3,77,75,73,30.40,30.13,15,4,15,0.00
2013-1-27,42.9,31.9,27.9,32.6,25.5,22.2,80,77,67,30.59,30.40,18,4,18,0.01
2013-1-28,52.2,39.2,32.5,44.9,31.9,24.5,78,75,72,30.52,30.33,9,3,9,0.00
2013-1-29,65.2,56.0,49.3,59.5,50.5,44.0,83,81,80,30.27,30.15,14,4,14,0.01
2013-1-30,64.5,60.1,54.0,59.1,55.0,49.0,84,83,82,30.17,29.65,29,7,29,0.01
2013-1-31,64.3,52.9,42.7,59.4,45.1,32.2,84,75,64,30.08,29.54,33,10,33,0.20